NJE418 EDDM-LIPZ

Flight info

Callsign NJE418
Flight time 0h 41m
Altitude 43000
Route TURBU7S TURBU Y107 TOBSO DCT BAKOR/N0483F410 DCT NAXAV/N0437F210 DCT ADOSA/N0424F190 L612 ALBET
Aircraft C700/M-SBDGHM1RWXY/LB2

Departure

Time 2026-05-06 19:57
Airport Munich Airport (EDDM)

Arrival

Time 2026-05-06 20:39
Airport Venice Marco Polo Airport (LIPZ)
Time Latitude Longitude Altitude Speed Heading
2026-05-06 19:38 48.35790 11.80358 1468 ft 0 kts 353°
2026-05-06 19:49 48.35809 11.80354 1475 ft 8 kts 354°
2026-05-06 19:49 48.35873 11.80308 1477 ft 12 kts 283°
2026-05-06 19:50 48.35866 11.80175 1480 ft 16 kts 263°
2026-05-06 19:50 48.35850 11.79977 1480 ft 21 kts 264°
2026-05-06 19:50 48.35833 11.79757 1473 ft 21 kts 263°
2026-05-06 19:50 48.35819 11.79571 1480 ft 13 kts 254°
2026-05-06 19:51 48.35736 11.79540 1474 ft 15 kts 174°
2026-05-06 19:51 48.35623 11.79560 1475 ft 19 kts 173°
2026-05-06 19:51 48.35482 11.79584 1480 ft 22 kts 173°
2026-05-06 19:51 48.35325 11.79610 1476 ft 24 kts 174°
2026-05-06 19:52 48.35166 11.79639 1480 ft 18 kts 174°
2026-05-06 19:52 48.35059 11.79658 1478 ft 12 kts 175°
2026-05-06 19:52 48.34991 11.79670 1480 ft 11 kts 174°
2026-05-06 19:52 48.34940 11.79678 1480 ft 2 kts 172°
2026-05-06 19:53 48.34923 11.79682 1474 ft 3 kts 173°
2026-05-06 19:53 48.34879 11.79688 1470 ft 10 kts 174°
2026-05-06 19:53 48.34809 11.79730 1476 ft 14 kts 114°
2026-05-06 19:53 48.34817 11.79892 1480 ft 17 kts 84°
2026-05-06 19:54 48.34832 11.80083 1480 ft 20 kts 83°
2026-05-06 19:54 48.34847 11.80285 1480 ft 19 kts 83°
2026-05-06 19:54 48.34852 11.80455 1470 ft 15 kts 106°
2026-05-06 19:54 48.34774 11.80553 1475 ft 15 kts 171°
2026-05-06 19:55 48.34689 11.80568 1480 ft 9 kts 174°
2026-05-06 19:55 48.34617 11.80555 1475 ft 12 kts 207°
2026-05-06 19:55 48.34580 11.80514 1470 ft 6 kts 221°
2026-05-06 19:55 48.34531 11.80453 1473 ft 10 kts 220°
2026-05-06 19:56 48.34484 11.80396 1474 ft 7 kts 227°
2026-05-06 19:56 48.34473 11.80353 1480 ft 0 kts 263°
2026-05-06 19:56 48.34470 11.80315 1480 ft 15 kts 263°
2026-05-06 19:57 48.34426 11.79753 1480 ft 99 kts 264°
2026-05-06 19:57 48.34335 11.78376 1830 ft 158 kts 263°
2026-05-06 19:57 48.34200 11.76567 2805 ft 177 kts 264°
2026-05-06 19:57 48.33927 11.74791 3673 ft 185 kts 251°
2026-05-06 19:58 48.33241 11.73091 4576 ft 194 kts 235°
2026-05-06 19:58 48.32156 11.71690 5451 ft 211 kts 216°
2026-05-06 19:58 48.30771 11.70920 6341 ft 222 kts 198°
2026-05-06 19:58 48.29178 11.70914 7004 ft 240 kts 177°
2026-05-06 19:59 48.27644 11.71924 7756 ft 249 kts 154°
2026-05-06 19:59 48.26128 11.73417 8646 ft 276 kts 151°
2026-05-06 19:59 48.24524 11.75066 9560 ft 284 kts 150°
2026-05-06 19:59 48.22899 11.76753 11082 ft 281 kts 150°
2026-05-06 20:00 48.21267 11.78402 12736 ft 287 kts 151°
2026-05-06 20:00 48.19584 11.80079 14240 ft 293 kts 151°
2026-05-06 20:00 48.17836 11.81664 15693 ft 294 kts 159°
2026-05-06 20:00 48.16546 11.82419 16355 ft 309 kts 165°
2026-05-06 20:01 48.14424 11.83440 17350 ft 325 kts 164°
2026-05-06 20:01 48.12271 11.84525 18705 ft 329 kts 164°
2026-05-06 20:01 48.10075 11.85626 19718 ft 337 kts 164°
2026-05-06 20:01 48.07830 11.86736 20691 ft 343 kts 164°
2026-05-06 20:02 48.05545 11.87869 21664 ft 348 kts 164°
2026-05-06 20:02 48.03227 11.89019 22641 ft 354 kts 164°
2026-05-06 20:02 48.00870 11.90190 23562 ft 360 kts 165°
2026-05-06 20:02 47.98481 11.91374 24393 ft 363 kts 165°
2026-05-06 20:03 47.96067 11.92567 25232 ft 367 kts 166°
2026-05-06 20:03 47.93634 11.93764 26048 ft 370 kts 167°
2026-05-06 20:03 47.91125 11.94585 26826 ft 369 kts 176°
2026-05-06 20:03 47.88558 11.94825 27640 ft 369 kts 185°
2026-05-06 20:04 47.85985 11.94749 28441 ft 372 kts 185°
2026-05-06 20:04 47.83386 11.94714 29235 ft 375 kts 185°
2026-05-06 20:04 47.80795 11.94680 30000 ft 378 kts 185°
2026-05-06 20:04 47.78150 11.94623 30625 ft 382 kts 186°
2026-05-06 20:05 47.75479 11.94565 31199 ft 386 kts 185°
2026-05-06 20:05 47.72775 11.94518 31772 ft 390 kts 185°
2026-05-06 20:05 47.70043 11.94473 32324 ft 394 kts 185°
2026-05-06 20:05 47.67290 11.94426 32854 ft 397 kts 185°
2026-05-06 20:06 47.64511 11.94376 33312 ft 401 kts 185°
2026-05-06 20:06 47.61697 11.94326 33774 ft 406 kts 185°
2026-05-06 20:06 47.58857 11.94277 34172 ft 410 kts 185°
2026-05-06 20:06 47.55992 11.94228 34585 ft 414 kts 185°
2026-05-06 20:07 47.53105 11.94177 34992 ft 417 kts 185°
2026-05-06 20:07 47.50183 11.94127 35384 ft 421 kts 184°
2026-05-06 20:07 47.47254 11.94077 35857 ft 421 kts 184°
2026-05-06 20:07 47.44318 11.94027 36320 ft 422 kts 184°
2026-05-06 20:08 47.41403 11.93677 36694 ft 420 kts 191°
2026-05-06 20:08 47.38497 11.93059 37097 ft 422 kts 190°
2026-05-06 20:08 47.35587 11.92497 37484 ft 422 kts 189°
2026-05-06 20:08 47.32700 11.91941 37858 ft 423 kts 190°
2026-05-06 20:09 47.29777 11.91350 38216 ft 424 kts 190°
2026-05-06 20:09 47.26847 11.90754 38564 ft 425 kts 189°
2026-05-06 20:09 47.23996 11.90195 39542 ft 406 kts 190°
2026-05-06 20:09 47.21201 11.89643 39848 ft 406 kts 190°
2026-05-06 20:10 47.18390 11.89080 40100 ft 408 kts 190°
2026-05-06 20:10 47.15576 11.88520 40388 ft 408 kts 190°
2026-05-06 20:10 47.12755 11.87961 40670 ft 410 kts 190°
2026-05-06 20:10 47.09926 11.87402 40938 ft 410 kts 190°
2026-05-06 20:11 47.07093 11.86844 41211 ft 410 kts 190°
2026-05-06 20:11 47.04258 11.86284 41514 ft 411 kts 189°
2026-05-06 20:11 47.01456 11.85704 41767 ft 411 kts 192°
2026-05-06 20:11 46.98667 11.84809 42007 ft 410 kts 195°
2026-05-06 20:12 46.95875 11.83908 42233 ft 411 kts 194°
2026-05-06 20:12 46.93072 11.83042 42458 ft 411 kts 194°
2026-05-06 20:12 46.90273 11.82164 42711 ft 412 kts 195°
2026-05-06 20:12 46.87476 11.81260 42876 ft 413 kts 195°
2026-05-06 20:13 46.81770 11.79448 42886 ft 425 kts 194°
2026-05-06 20:13 46.75919 11.77599 42902 ft 435 kts 195°
2026-05-06 20:14 46.69932 11.75659 42892 ft 444 kts 198°
2026-05-06 20:14 46.64269 11.72019 42296 ft 447 kts 213°
2026-05-06 20:15 46.61794 11.69452 41734 ft 439 kts 220°
2026-05-06 20:15 46.59589 11.66453 41176 ft 429 kts 227°
2026-05-06 20:15 46.57712 11.63137 40617 ft 421 kts 234°
2026-05-06 20:15 46.56171 11.59569 40095 ft 415 kts 240°
2026-05-06 20:16 46.54858 11.55850 39552 ft 413 kts 242°
2026-05-06 20:16 46.53528 11.52134 39017 ft 416 kts 241°
2026-05-06 20:16 46.52180 11.48395 38437 ft 421 kts 241°
2026-05-06 20:16 46.50825 11.44610 37852 ft 422 kts 240°
2026-05-06 20:17 46.49269 11.41017 37297 ft 417 kts 233°
2026-05-06 20:17 46.47422 11.37792 36748 ft 412 kts 226°
2026-05-06 20:17 46.45337 11.34984 36208 ft 408 kts 220°
2026-05-06 20:17 46.43040 11.32597 35663 ft 404 kts 213°
2026-05-06 20:18 46.40581 11.30669 35136 ft 401 kts 207°
2026-05-06 20:18 46.37988 11.29206 34606 ft 399 kts 201°
2026-05-06 20:18 46.35345 11.28183 34097 ft 394 kts 198°
2026-05-06 20:18 46.32708 11.27346 33590 ft 382 kts 194°
2026-05-06 20:19 46.30091 11.26965 32857 ft 374 kts 188°
2026-05-06 20:19 46.27518 11.26989 32140 ft 367 kts 183°
2026-05-06 20:19 46.24989 11.27399 31446 ft 363 kts 178°
2026-05-06 20:19 46.22538 11.28172 30764 ft 360 kts 173°
2026-05-06 20:20 46.20167 11.29296 30096 ft 358 kts 168°
2026-05-06 20:20 46.17900 11.30753 29325 ft 356 kts 163°
2026-05-06 20:20 46.15743 11.32516 28557 ft 355 kts 159°
2026-05-06 20:20 46.13638 11.34324 27824 ft 349 kts 159°
2026-05-06 20:21 46.11552 11.36078 27094 ft 344 kts 159°
2026-05-06 20:21 46.09500 11.37818 26390 ft 340 kts 159°
2026-05-06 20:21 46.07475 11.39551 25712 ft 337 kts 159°
2026-05-06 20:21 46.05471 11.41255 25051 ft 333 kts 158°
2026-05-06 20:22 46.03482 11.42943 24387 ft 330 kts 158°
2026-05-06 20:22 46.01516 11.44610 23756 ft 326 kts 158°
2026-05-06 20:22 45.99569 11.46260 23052 ft 324 kts 158°
2026-05-06 20:22 45.97639 11.47894 22325 ft 321 kts 157°
2026-05-06 20:23 45.95723 11.49516 21607 ft 318 kts 157°
2026-05-06 20:23 45.93847 11.51101 20922 ft 316 kts 157°
2026-05-06 20:23 45.91959 11.52697 20236 ft 314 kts 156°
2026-05-06 20:23 45.90082 11.54283 19572 ft 312 kts 156°
2026-05-06 20:24 45.88211 11.55860 18914 ft 310 kts 156°
2026-05-06 20:24 45.86358 11.57422 18290 ft 308 kts 156°
2026-05-06 20:24 45.84519 11.58971 17565 ft 306 kts 155°
2026-05-06 20:24 45.82685 11.60516 16856 ft 305 kts 155°
2026-05-06 20:25 45.80868 11.62046 16337 ft 299 kts 155°
2026-05-06 20:25 45.79102 11.63534 15913 ft 290 kts 155°
2026-05-06 20:25 45.77381 11.64978 15499 ft 283 kts 155°
2026-05-06 20:25 45.75697 11.66387 15090 ft 277 kts 155°
2026-05-06 20:26 45.74052 11.67768 14699 ft 272 kts 155°
2026-05-06 20:26 45.72437 11.69122 14307 ft 267 kts 155°
2026-05-06 20:26 45.70865 11.70439 13931 ft 262 kts 155°
2026-05-06 20:26 45.69301 11.71747 13537 ft 258 kts 155°
2026-05-06 20:27 45.67763 11.73032 13154 ft 254 kts 155°
2026-05-06 20:27 45.66227 11.74315 12787 ft 261 kts 155°
2026-05-06 20:27 45.64608 11.75656 12405 ft 276 kts 154°
2026-05-06 20:27 45.62931 11.77062 12006 ft 280 kts 154°
2026-05-06 20:28 45.61262 11.78462 11604 ft 277 kts 154°
2026-05-06 20:28 45.59607 11.79843 11209 ft 273 kts 154°
2026-05-06 20:28 45.57973 11.81201 10817 ft 270 kts 154°
2026-05-06 20:28 45.56349 11.82552 10427 ft 270 kts 154°
2026-05-06 20:29 45.54728 11.83900 10037 ft 270 kts 154°
2026-05-06 20:29 45.53105 11.85250 9637 ft 270 kts 153°
2026-05-06 20:29 45.51504 11.86580 9242 ft 269 kts 153°
2026-05-06 20:29 45.49869 11.87939 8847 ft 269 kts 153°
2026-05-06 20:30 45.48275 11.89259 8468 ft 268 kts 153°
2026-05-06 20:30 45.45064 11.91920 7695 ft 266 kts 153°
2026-05-06 20:30 45.43469 11.93243 7316 ft 265 kts 153°
2026-05-06 20:31 45.41883 11.94555 6931 ft 263 kts 153°
2026-05-06 20:31 45.40303 11.95860 6554 ft 262 kts 152°
2026-05-06 20:31 45.38728 11.97163 6158 ft 261 kts 152°
2026-05-06 20:31 45.37159 11.98458 5768 ft 258 kts 152°
2026-05-06 20:32 45.35626 11.99724 5403 ft 252 kts 152°
2026-05-06 20:32 45.34149 12.00944 5044 ft 239 kts 152°
2026-05-06 20:32 45.32820 12.02277 4698 ft 231 kts 136°
2026-05-06 20:32 45.31886 12.04124 4362 ft 232 kts 120°
2026-05-06 20:33 45.31386 12.06316 4029 ft 237 kts 101°
2026-05-06 20:33 45.31399 12.08668 3693 ft 241 kts 82°
2026-05-06 20:33 45.31950 12.10909 3344 ft 239 kts 62°
2026-05-06 20:33 45.32956 12.12735 3026 ft 232 kts 43°
2026-05-06 20:34 45.34137 12.14167 3002 ft 216 kts 41°
2026-05-06 20:34 45.35246 12.15595 3018 ft 213 kts 43°
2026-05-06 20:34 45.36355 12.17033 3025 ft 220 kts 41°
2026-05-06 20:34 45.37510 12.18481 3023 ft 221 kts 42°
2026-05-06 20:35 45.38621 12.19933 2855 ft 210 kts 43°
2026-05-06 20:35 45.39662 12.21247 2590 ft 196 kts 41°
2026-05-06 20:35 45.40647 12.22520 2331 ft 186 kts 43°
2026-05-06 20:35 45.41599 12.23745 2084 ft 184 kts 41°
2026-05-06 20:36 45.42554 12.24953 1837 ft 182 kts 43°
2026-05-06 20:36 45.43463 12.26148 1599 ft 173 kts 41°
2026-05-06 20:36 45.44347 12.27251 1365 ft 162 kts 42°
2026-05-06 20:36 45.45101 12.28237 1197 ft 137 kts 43°
2026-05-06 20:37 45.45801 12.29140 972 ft 136 kts 42°
2026-05-06 20:37 45.46498 12.30017 773 ft 131 kts 41°
2026-05-06 20:37 45.47166 12.30879 589 ft 127 kts 43°
2026-05-06 20:37 45.47808 12.31718 429 ft 123 kts 42°
2026-05-06 20:38 45.48441 12.32522 306 ft 121 kts 42°
2026-05-06 20:38 45.49067 12.33325 149 ft 121 kts 42°
2026-05-06 20:38 45.49674 12.34106 15 ft 110 kts 42°
2026-05-06 20:38 45.50144 12.34713 10 ft 65 kts 41°
2026-05-06 20:39 45.50375 12.35005 7 ft 18 kts 37°
2026-05-06 20:39 45.50501 12.35062 8 ft 20 kts 11°
2026-05-06 20:39 45.50584 12.35073 9 ft 12 kts 340°
2026-05-06 20:39 45.50615 12.34957 9 ft 15 kts 266°
2026-05-06 20:40 45.50609 12.34798 10 ft 15 kts 265°
2026-05-06 20:40 45.50544 12.34674 10 ft 18 kts 222°
2026-05-06 20:40 45.50445 12.34547 10 ft 21 kts 221°
2026-05-06 20:40 45.50330 12.34400 11 ft 24 kts 222°
2026-05-06 20:41 45.50200 12.34234 10 ft 27 kts 223°
2026-05-06 20:41 45.50057 12.34047 10 ft 29 kts 222°
2026-05-06 20:41 45.49951 12.33913 10 ft 17 kts 222°
2026-05-06 20:41 45.49886 12.33830 10 ft 9 kts 222°
2026-05-06 20:42 45.49833 12.33762 10 ft 8 kts 222°
2026-05-06 20:42 45.49826 12.33707 10 ft 8 kts 304°
2026-05-06 20:42 45.49852 12.33688 10 ft 2 kts 19°
2026-05-06 20:42 45.49857 12.33693 10 ft 1 kts 35°
2026-05-06 20:43 45.49861 12.33698 10 ft 0 kts 40°